TimeCST,TemperatureF,Dew PointF,Humidity,Sea Level PressureIn,VisibilityMPH,Wind Direction,Wind SpeedMPH,Gust SpeedMPH,PrecipitationIn,Events,Conditions,WindDirDegrees,DateUTC
12:54 AM,37.0,30.0,76,30.09,9.0,WNW,3.5,-,N/A,,Partly Cloudy,290,2013-12-17 06:54:00
1:54 AM,36.0,28.9,76,30.10,8.0,North,-9999.0,-,N/A,,Clear,0,2013-12-17 07:54:00
2:54 AM,32.0,27.0,82,30.12,5.0,North,9.2,-,N/A,,Haze,350,2013-12-17 08:54:00
3:54 AM,30.0,26.1,85,30.13,6.0,NNW,8.1,-,N/A,,Overcast,330,2013-12-17 09:54:00
4:54 AM,28.9,25.0,85,30.17,6.0,NNW,5.8,-,N/A,,Overcast,340,2013-12-17 10:54:00
5:54 AM,28.9,25.0,85,30.16,6.0,West,5.8,-,N/A,,Overcast,280,2013-12-17 11:54:00
6:54 AM,28.9,24.1,82,30.17,7.0,NW,4.6,-,N/A,,Overcast,320,2013-12-17 12:54:00
7:02 AM,28.9,24.1,82,30.15,7.0,NNW,3.5,-,N/A,,Overcast,330,2013-12-17 13:02:00
7:44 AM,28.9,24.1,82,30.16,6.0,NW,4.6,-,N/A,,Haze,320,2013-12-17 13:44:00
7:54 AM,28.9,24.1,82,30.18,5.0,NW,5.8,-,N/A,,Haze,320,2013-12-17 13:54:00
8:54 AM,28.9,25.0,85,30.18,3.0,NNW,5.8,-,N/A,,Overcast,330,2013-12-17 14:54:00
9:54 AM,30.0,25.0,82,30.19,3.0,West,6.9,-,N/A,,Overcast,260,2013-12-17 15:54:00
10:54 AM,30.9,26.1,82,30.19,4.0,WNW,6.9,-,N/A,,Haze,290,2013-12-17 16:54:00
11:23 AM,32.0,26.1,79,30.17,6.0,West,9.2,-,N/A,,Haze,280,2013-12-17 17:23:00
11:54 AM,32.0,26.1,79,30.17,6.0,WNW,11.5,-,N/A,,Haze,290,2013-12-17 17:54:00
12:28 PM,35.1,27.0,72,30.15,8.0,West,10.4,-,N/A,,Scattered Clouds,260,2013-12-17 18:28:00
12:54 PM,36.0,27.0,70,30.15,10.0,WSW,11.5,-,N/A,,Partly Cloudy,250,2013-12-17 18:54:00
1:54 PM,37.9,28.0,68,30.17,10.0,West,10.4,-,N/A,,Partly Cloudy,280,2013-12-17 19:54:00
2:54 PM,39.0,28.0,65,30.19,10.0,WNW,12.7,-,N/A,,Clear,300,2013-12-17 20:54:00
3:54 PM,37.0,27.0,67,30.21,9.0,West,9.2,-,N/A,,Partly Cloudy,280,2013-12-17 21:54:00
4:54 PM,33.1,27.0,78,30.20,9.0,WSW,5.8,-,N/A,,Clear,250,2013-12-17 22:54:00
5:54 PM,33.1,26.1,75,30.22,9.0,WSW,5.8,-,N/A,,Clear,240,2013-12-17 23:54:00
6:54 PM,30.0,24.1,79,30.25,8.0,WSW,3.5,-,N/A,,Clear,250,2013-12-18 00:54:00
7:54 PM,33.1,26.1,75,30.26,10.0,West,8.1,-,N/A,,Clear,260,2013-12-18 01:54:00
8:54 PM,33.1,24.1,70,30.27,10.0,West,5.8,-,N/A,,Clear,260,2013-12-18 02:54:00
9:54 PM,30.0,23.0,75,30.27,10.0,SW,4.6,-,N/A,,Clear,230,2013-12-18 03:54:00
10:54 PM,30.0,23.0,75,30.28,10.0,Calm,Calm,-,N/A,,Clear,0,2013-12-18 04:54:00
11:54 PM,28.9,23.0,78,30.28,10.0,Calm,Calm,-,N/A,,Clear,0,2013-12-18 05:54:00